{"data":{"norad_id":60297,"intl_designator":"2024-132V","name":"STARLINK-32034","alt_names":[],"object_type":"PAYLOAD","status":"ACTIVE","operator":null,"country":"US","launch_date":"2024-07-28","launch_site_code":"AFETR","launch_vehicle":null,"mission":null,"orbit_class":"UNKNOWN","rcs_meters":null,"size_class":null,"mass_kg":null,"dimensions":null,"purposes":["comms"],"wikipedia_slug":null,"has_3d_model":false,"image_url":null,"decayed_at":null,"tle_current":{"epoch":"2026-09-21T06:10:26.214240Z","epoch_age_seconds":120215,"freshness":"FRESH","line1":"1 60297U 24132V   26264.25724785 -.00000500  00000+0 -43437-5 0  9998","line2":"2 60297  53.1593 222.5523 0001353  96.6927 263.4229 15.31700562121523","mean_motion":15.31700562,"eccentricity":0.0001353,"inclination_deg":53.1593,"raan_deg":222.5523,"arg_perigee_deg":96.6927,"mean_anomaly_deg":263.4229,"bstar":-4.3437e-6,"rev_number":12152,"period_min":94.01315346648,"perigee_km":469.81166710262,"apogee_km":471.66497276419,"semimajor_km":6848.8753199334,"source":"CELESTRAK","updated_at":"2026-09-22T09:00:49.195401Z"}}}